EN

Hourly Weather Uglovoy

Today, 30 September, Wednesday

Time Temperature Precipitation Wind Pressure Humidity
00:00 +12°C° 0 mm 2 mps 770 mmHg 78%
01:00 +12°C° 0 mm 2 mps 770 mmHg 79%
02:00 +10°C° 0 mm 2 mps 771 mmHg 80%
03:00 +10°C° 0 mm 2 mps 771 mmHg 82%
04:00 +10°C° 0 mm 2 mps 771 mmHg 81%
05:00 +10°C° 0 mm 2 mps 771 mmHg 81%
06:00 +10°C° 0 mm 2 mps 770 mmHg 80%
07:00 +12°C° 0 mm 2 mps 771 mmHg 74%
08:00 +14°C° 0 mm 2 mps 771 mmHg 67%
09:00 +16°C° 0 mm 2 mps 771 mmHg 61%
10:00 +17°C° 0 mm 2 mps 771 mmHg 57%
11:00 +18°C° 0 mm 3 mps 770 mmHg 53%
12:00 +20°C° 0 mm 3 mps 770 mmHg 49%
13:00 +20°C° 0 mm 3 mps 770 mmHg 48%
14:00 +20°C° 0 mm 3 mps 770 mmHg 48%
15:00 +20°C° 0 mm 3 mps 770 mmHg 48%
16:00 +18°C° 0 mm 2 mps 770 mmHg 53%
17:00 +17°C° 0 mm 2 mps 770 mmHg 58%
18:00 +15°C° 0 mm 2 mps 770 mmHg 64%
19:00 +14°C° 0 mm 2 mps 770 mmHg 65%
20:00 +14°C° 0 mm 2 mps 770 mmHg 65%
21:00 +13°C° 0 mm 2 mps 770 mmHg 66%
22:00 +13°C° 0 mm 2 mps 770 mmHg 67%
23:00 +13°C° 0 mm 1 mps 770 mmHg 68%

Tomorrow, 1 October, Thursday

Time Temperature Precipitation Wind Pressure Humidity
00:00 +12°C° 0 mm 1 mps 770 mmHg 69%
01:00 +12°C° 0 mm 1 mps 770 mmHg 70%
02:00 +12°C° 0 mm 1 mps 771 mmHg 70%
03:00 +12°C° 0 mm 1 mps 771 mmHg 71%
04:00 +11°C° 0 mm 1 mps 771 mmHg 72%
05:00 +11°C° 0 mm 1 mps 771 mmHg 73%
06:00 +11°C° 0 mm 1 mps 770 mmHg 74%
07:00 +13°C° 0 mm 2 mps 770 mmHg 68%
08:00 +15°C° 0 mm 2 mps 771 mmHg 62%
09:00 +16°C° 0 mm 2 mps 771 mmHg 56%
10:00 +18°C° 0 mm 2 mps 770 mmHg 52%
11:00 +19°C° 0 mm 2 mps 770 mmHg 47%
12:00 +20°C° 0 mm 2 mps 770 mmHg 43%
13:00 +21°C° 0 mm 2 mps 770 mmHg 42%
14:00 +21°C° 0 mm 2 mps 770 mmHg 42%
15:00 +22°C° 0 mm 1 mps 770 mmHg 42%
16:00 +20°C° 0 mm 1 mps 769 mmHg 48%
17:00 +19°C° 0 mm 1 mps 769 mmHg 54%
18:00 +16°C° 0 mm 1 mps 769 mmHg 61%
19:00 +15°C° 0 mm 1 mps 769 mmHg 64%
20:00 +15°C° 0 mm 1 mps 769 mmHg 68%
21:00 +14°C° 0 mm 1 mps 769 mmHg 71%
22:00 +14°C° 0 mm 1 mps 769 mmHg 74%
23:00 +13°C° 0 mm 1 mps 769 mmHg 76%

Day after tomorrow, 2 October, Friday

Time Temperature Precipitation Wind Pressure Humidity
00:00 +12°C° 0 mm 0 mps 769 mmHg 79%
01:00 +11°C° 0 mm 0 mps 770 mmHg 80%
02:00 +11°C° 0 mm 0 mps 770 mmHg 81%
03:00 +11°C° 0 mm 0 mps 770 mmHg 83%
04:00 +11°C° 0 mm 0 mps 770 mmHg 83%
05:00 +11°C° 0 mm 0 mps 770 mmHg 84%
06:00 +10°C° 0 mm 0 mps 770 mmHg 84%
07:00 +12°C° 0 mm 0 mps 770 mmHg 77%
08:00 +14°C° 0 mm 0 mps 770 mmHg 71%
09:00 +16°C° 0 mm 0 mps 770 mmHg 64%
10:00 +17°C° 0 mm 0 mps 770 mmHg 60%
11:00 +18°C° 0 mm 0 mps 770 mmHg 56%
12:00 +19°C° 0 mm 0 mps 769 mmHg 52%
13:00 +19°C° 0 mm 0 mps 769 mmHg 51%
14:00 +21°C° 0 mm 1 mps 769 mmHg 50%
15:00 +22°C° 0 mm 1 mps 769 mmHg 48%
16:00 +20°C° 0 mm 1 mps 769 mmHg 54%
17:00 +18°C° 0 mm 1 mps 769 mmHg 59%
18:00 +15°C° 0 mm 0 mps 769 mmHg 65%
19:00 +15°C° 0 mm 1 mps 769 mmHg 67%
20:00 +15°C° 0 mm 1 mps 769 mmHg 70%
21:00 +14°C° 0 mm 1 mps 769 mmHg 72%
22:00 +14°C° 0 mm 1 mps 769 mmHg 74%
23:00 +13°C° 0 mm 1 mps 769 mmHg 76%

3 October, Saturday

Time Temperature Precipitation Wind Pressure Humidity
00:00 +13°C° 0 mm 1 mps 769 mmHg 78%
01:00 +13°C° 0 mm 1 mps 769 mmHg 79%
02:00 +12°C° 0 mm 1 mps 769 mmHg 81%
03:00 +12°C° 0 mm 1 mps 769 mmHg 82%
04:00 +12°C° 0 mm 1 mps 769 mmHg 83%
05:00 +11°C° 0 mm 1 mps 769 mmHg 85%
06:00 +11°C° 0 mm 1 mps 769 mmHg 86%
07:00 +13°C° 0 mm 1 mps 769 mmHg 78%
08:00 +14°C° 0 mm 2 mps 769 mmHg 70%
09:00 +16°C° 0 mm 2 mps 769 mmHg 62%
10:00 +17°C° 0 mm 2 mps 769 mmHg 57%
11:00 +18°C° 0 mm 2 mps 769 mmHg 51%
12:00 +19°C° 0 mm 2 mps 769 mmHg 45%
13:00 +19°C° 0 mm 2 mps 769 mmHg 45%
14:00 +19°C° 0 mm 2 mps 768 mmHg 44%
15:00 +19°C° 0 mm 2 mps 768 mmHg 43%
16:00 +18°C° 0 mm 2 mps 768 mmHg 50%
17:00 +16°C° 0 mm 2 mps 768 mmHg 56%
18:00 +14°C° 0 mm 2 mps 768 mmHg 62%
19:00 +14°C° 0 mm 2 mps 768 mmHg 66%
20:00 +13°C° 0 mm 2 mps 769 mmHg 70%
21:00 +12°C° 0 mm 1 mps 769 mmHg 74%
22:00 +12°C° 0 mm 1 mps 769 mmHg 77%
23:00 +11°C° 0 mm 1 mps 769 mmHg 79%

4 October, Sunday

Time Temperature Precipitation Wind Pressure Humidity
00:00 +11°C° 0 mm 1 mps 769 mmHg 82%
01:00 +11°C° 0 mm 1 mps 769 mmHg 84%
02:00 +10°C° 0 mm 1 mps 769 mmHg 85%
03:00 +10°C° 0 mm 1 mps 769 mmHg 87%
04:00 +10°C° 0 mm 1 mps 769 mmHg 88%
05:00 +9°C° 0 mm 1 mps 769 mmHg 89%
06:00 +8°C° 0 mm 2 mps 769 mmHg 90%
07:00 +10°C° 0 mm 2 mps 769 mmHg 84%
08:00 +12°C° 0 mm 2 mps 769 mmHg 77%
09:00 +14°C° 0 mm 2 mps 770 mmHg 71%
10:00 +14°C° 0 mm 3 mps 770 mmHg 64%
11:00 +16°C° 0 mm 3 mps 770 mmHg 58%
12:00 +17°C° 0 mm 4 mps 770 mmHg 51%
13:00 +17°C° 0 mm 4 mps 770 mmHg 50%
14:00 +17°C° 0 mm 4 mps 769 mmHg 48%
15:00 +17°C° 0 mm 4 mps 769 mmHg 47%
16:00 +14°C° 0 mm 4 mps 769 mmHg 51%
17:00 +12°C° 0 mm 3 mps 770 mmHg 56%
18:00 +11°C° 0 mm 3 mps 770 mmHg 60%
19:00 +10°C° 0 mm 3 mps 770 mmHg 62%
20:00 +9°C° 0 mm 3 mps 770 mmHg 64%
21:00 +8°C° 0 mm 3 mps 770 mmHg 66%
22:00 +7°C° 0 mm 2 mps 770 mmHg 71%
23:00 +7°C° 0 mm 2 mps 771 mmHg 76%

5 October, Monday

Time Temperature Precipitation Wind Pressure Humidity
00:00 +6°C° 0 mm 2 mps 771 mmHg 80%
01:00 +6°C° 0 mm 2 mps 771 mmHg 81%
02:00 +5°C° 0 mm 2 mps 771 mmHg 81%
03:00 +5°C° 0 mm 2 mps 771 mmHg 81%
04:00 +4°C° 0 mm 2 mps 771 mmHg 80%
05:00 +4°C° 0 mm 2 mps 771 mmHg 79%
06:00 +4°C° 0 mm 2 mps 771 mmHg 78%
07:00 +5°C° 0 mm 2 mps 771 mmHg 72%
08:00 +7°C° 0 mm 2 mps 771 mmHg 66%
09:00 +9°C° 0 mm 3 mps 771 mmHg 60%
10:00 +10°C° 0 mm 2 mps 771 mmHg 57%
11:00 +12°C° 0 mm 2 mps 771 mmHg 55%
12:00 +14°C° 0 mm 2 mps 771 mmHg 52%
13:00 +14°C° 0 mm 2 mps 771 mmHg 50%
14:00 +14°C° 0 mm 2 mps 771 mmHg 49%
15:00 +15°C° 0 mm 1 mps 771 mmHg 47%
16:00 +13°C° 0 mm 1 mps 771 mmHg 52%
17:00 +12°C° 0 mm 1 mps 770 mmHg 58%
18:00 +10°C° 0 mm 1 mps 770 mmHg 63%
19:00 +10°C° 0 mm 1 mps 770 mmHg 65%
20:00 +9°C° 0 mm 1 mps 770 mmHg 67%
21:00 +8°C° 0 mm 1 mps 771 mmHg 70%
22:00 +8°C° 0 mm 1 mps 771 mmHg 71%
23:00 +7°C° 0 mm 0 mps 771 mmHg 72%
Show more

We Need Your Consent

Meteoprog and our Service Providers may store and access personal data such as cookies, device identifiers or other similar technologies on your device and process such data to personalise content and ads, as well as provide social media features and to analyse the traffic.

  • Store and/or access information on your device

    Cookies, device identifiers or other information can be stored or accessed on your device for the purposes indicated above.

  • Personalised ads and content, ad and content measurement, audience insights, and products development

    Ads and content can be personalised based on a profile. More data can be added to better personalise ads and content. Ad and content performance can be measured. Insights about the audience who saw the ads and content can be derived. Such data can be used to develop or improve user’s experience, systems and software.

By clicking ‘I Agree’ you will allow the use of indicated cookies, device identifiers, web beacons or other similar technologies. Your settings can be changed in the browser on your device.

For certain purposes, legitimate interests may be relied on, rather than consent. You can read more about this in our Privacy and Cookie Policy.